Starlink 3252

operational
NORAD ID: 49733 Int'l Des: 2021-115 Owner: SPXS Country: US Constellation: starlink
LEOCIRCULAR

Starlink 3252について

説明を読み込み中...

リアルタイム位置

3D地球を読み込み中...

次回通過

高度履歴

Altitude vs Time

uPlot chart will show altitude changes over time

軌道要素

1 49733U 21115K 25349.92099950 .00000512 00000-0 50274-4 0 9992
2 49733 53.2160 175.1718 0001680 80.8332 279.2850 15.08841181222741
Epoch: Dec 15, 2025 • Age: 13 hours

現在のステータス

高度 545.6 km
速度 7.59 km/s
衛星直下点 -19.75°S, 88.69°W
打ち上げ日 Dec 2, 2021
運用期間 4 years
タイプ internet

技術仕様

分類 Payload
質量 290.00 kg
乾燥質量 270.00 kg
総質量 290.00 kg
長さ 0.20 m
直径 2.80 m
スパン 9.00 m
形状 Box + pan
製造者 SPXS
バスタイプ Starlink
フェーズステータス In Orbit
所有者/国 SPXS/US

大規模コンステレーション

Loading constellations...